When you browse on this site, cookies collect data to enhance your experience and personalize the content and advertising you see.
Visit our Privacy Policy to learn more. By continuing to use the site, you agree to this use of cookies and data.
  • In Schweiz
  • Länderverzeichnis
  • Für 7 Tage
  • Wassertemperatur
  • Satellitenkarten
  • Wetterkarte
  • Widgets
  • user-avatar
    Anmelden

    Stündliche Wetter Sidi Bu-l-Abbas

    Heute, 22 Mai, Mittwoch

    Zeit Temperatur Niederschläge Wind Luftdruck Luftfeuchtigkeit
    00:00 +17°C° 0 mm 0 m/S 720 mmHg 61%
    01:00 +16°C° 0 mm 0 m/S 720 mmHg 63%
    02:00 +16°C° 0 mm 0 m/S 720 mmHg 66%
    03:00 +15°C° 0 mm 0 m/S 720 mmHg 68%
    04:00 +16°C° 0 mm 0 m/S 720 mmHg 66%
    05:00 +16°C° 0 mm 0 m/S 720 mmHg 64%
    06:00 +17°C° 0 mm 0 m/S 720 mmHg 62%
    07:00 +18°C° 0 mm 0 m/S 721 mmHg 54%
    08:00 +20°C° 0 mm 0 m/S 721 mmHg 45%
    09:00 +24°C° 0 mm 1 m/S 721 mmHg 36%
    10:00 +25°C° 0 mm 1 m/S 722 mmHg 33%
    11:00 +26°C° 0 mm 2 m/S 722 mmHg 30%
    12:00 +28°C° 0 mm 3 m/S 722 mmHg 27%
    13:00 +28°C° 0 mm 4 m/S 721 mmHg 26%
    14:00 +29°C° 0 mm 4 m/S 721 mmHg 26%
    15:00 +29°C° 0 mm 5 m/S 721 mmHg 26%
    16:00 +28°C° 0 mm 5 m/S 721 mmHg 28%
    17:00 +27°C° 0 mm 5 m/S 720 mmHg 31%
    18:00 +26°C° 0 mm 5 m/S 720 mmHg 34%
    19:00 +25°C° 0 mm 4 m/S 720 mmHg 38%
    20:00 +24°C° 0 mm 3 m/S 721 mmHg 41%
    21:00 +21°C° 0 mm 2 m/S 721 mmHg 45%
    22:00 +22°C° 0 mm 1 m/S 721 mmHg 47%
    23:00 +21°C° 0 mm 1 m/S 721 mmHg 50%

    Morgen, 23 Mai, Donnerstag

    Zeit Temperatur Niederschläge Wind Luftdruck Luftfeuchtigkeit
    00:00 +20°C° 0 mm 1 m/S 721 mmHg 53%
    01:00 +20°C° 0 mm 1 m/S 721 mmHg 54%
    02:00 +17°C° 0 mm 0 m/S 721 mmHg 56%
    03:00 +17°C° 0 mm 0 m/S 720 mmHg 57%
    04:00 +17°C° 0 mm 0 m/S 720 mmHg 56%
    05:00 +18°C° 0 mm 0 m/S 720 mmHg 55%
    06:00 +19°C° 0 mm 0 m/S 720 mmHg 54%
    07:00 +22°C° 0 mm 1 m/S 721 mmHg 47%
    08:00 +24°C° 0 mm 1 m/S 721 mmHg 39%
    09:00 +26°C° 0 mm 1 m/S 721 mmHg 31%
    10:00 +28°C° 0 mm 2 m/S 721 mmHg 28%
    11:00 +29°C° 0 mm 2 m/S 721 mmHg 25%
    12:00 +30°C° 0 mm 3 m/S 721 mmHg 21%
    13:00 +31°C° 0 mm 3 m/S 721 mmHg 21%
    14:00 +32°C° 0 mm 4 m/S 720 mmHg 21%
    15:00 +33°C° 0 mm 5 m/S 720 mmHg 20%
    16:00 +32°C° 0 mm 5 m/S 720 mmHg 22%
    17:00 +30°C° 0 mm 5 m/S 719 mmHg 24%
    18:00 +29°C° 0 mm 5 m/S 719 mmHg 26%
    19:00 +27°C° 0 mm 4 m/S 719 mmHg 29%
    20:00 +26°C° 0 mm 2 m/S 719 mmHg 32%
    21:00 +24°C° 0 mm 1 m/S 719 mmHg 35%
    22:00 +24°C° 0 mm 1 m/S 719 mmHg 37%
    23:00 +21°C° 0 mm 0 m/S 719 mmHg 39%

    übermorgen, 24 Mai, Freitag

    Zeit Temperatur Niederschläge Wind Luftdruck Luftfeuchtigkeit
    00:00 +20°C° 0 mm 0 m/S 719 mmHg 41%
    01:00 +22°C° 0 mm 1 m/S 718 mmHg 41%
    02:00 +21°C° 0 mm 1 m/S 718 mmHg 41%
    03:00 +21°C° 0 mm 1 m/S 718 mmHg 42%
    04:00 +21°C° 0 mm 1 m/S 718 mmHg 43%
    05:00 +21°C° 0 mm 1 m/S 718 mmHg 44%
    06:00 +22°C° 0 mm 1 m/S 718 mmHg 45%
    07:00 +24°C° 0 mm 1 m/S 718 mmHg 39%
    08:00 +25°C° 0 mm 1 m/S 718 mmHg 33%
    09:00 +27°C° 0 mm 1 m/S 718 mmHg 26%
    10:00 +28°C° 0 mm 2 m/S 718 mmHg 26%
    11:00 +29°C° 0 mm 3 m/S 718 mmHg 25%
    12:00 +32°C° 0 mm 4 m/S 718 mmHg 24%
    13:00 +30°C° 0 mm 5 m/S 717 mmHg 26%
    14:00 +30°C° 0 mm 5 m/S 717 mmHg 27%
    15:00 +30°C° 0 mm 6 m/S 716 mmHg 29%
    16:00 +29°C° 0 mm 5 m/S 716 mmHg 29%
    17:00 +27°C° 0 mm 4 m/S 716 mmHg 30%
    18:00 +26°C° 0 mm 3 m/S 716 mmHg 31%
    19:00 +25°C° 0 mm 3 m/S 716 mmHg 34%
    20:00 +24°C° 0 mm 3 m/S 716 mmHg 37%
    21:00 +23°C° 0 mm 2 m/S 716 mmHg 40%
    22:00 +21°C° 0 mm 2 m/S 716 mmHg 46%
    23:00 +20°C° 0 mm 2 m/S 716 mmHg 53%

    25 Mai, Samstag

    Zeit Temperatur Niederschläge Wind Luftdruck Luftfeuchtigkeit
    00:00 +19°C° 0 mm 2 m/S 716 mmHg 59%
    01:00 +19°C° 0 mm 2 m/S 716 mmHg 64%
    02:00 +18°C° 0 mm 2 m/S 716 mmHg 68%
    03:00 +18°C° 0 mm 2 m/S 715 mmHg 72%
    04:00 +18°C° 0 mm 2 m/S 715 mmHg 75%
    05:00 +17°C° 0 mm 2 m/S 716 mmHg 78%
    06:00 +17°C° 0 mm 2 m/S 716 mmHg 81%
    07:00 +18°C° 0 mm 2 m/S 716 mmHg 75%
    08:00 +19°C° 0 mm 3 m/S 717 mmHg 69%
    09:00 +20°C° 0 mm 4 m/S 717 mmHg 63%
    10:00 +21°C° 0 mm 4 m/S 717 mmHg 59%
    11:00 +22°C° 0 mm 5 m/S 717 mmHg 55%
    12:00 +23°C° 0 mm 5 m/S 718 mmHg 51%
    13:00 +23°C° 0 mm 6 m/S 717 mmHg 51%
    14:00 +23°C° 0 mm 7 m/S 717 mmHg 51%
    15:00 +23°C° 0 mm 7 m/S 717 mmHg 51%
    16:00 +22°C° 0 mm 7 m/S 717 mmHg 56%
    17:00 +21°C° 0 mm 7 m/S 717 mmHg 61%
    18:00 +20°C° 0 mm 6 m/S 717 mmHg 66%
    19:00 +19°C° 0 mm 5 m/S 718 mmHg 70%
    20:00 +17°C° 0 mm 5 m/S 718 mmHg 74%
    21:00 +17°C° 0 mm 4 m/S 718 mmHg 78%
    22:00 +17°C° 0.1 mm 3 m/S 718 mmHg 77%
    23:00 +17°C° 0.1 mm 3 m/S 718 mmHg 77%

    26 Mai, Sonntag

    Zeit Temperatur Niederschläge Wind Luftdruck Luftfeuchtigkeit
    00:00 +17°C° 0.1 mm 2 m/S 718 mmHg 77%
    01:00 +16°C° 0 mm 3 m/S 718 mmHg 80%
    02:00 +16°C° 0 mm 3 m/S 718 mmHg 83%
    03:00 +14°C° 0 mm 3 m/S 718 mmHg 86%
    04:00 +15°C° 0 mm 2 m/S 718 mmHg 86%
    05:00 +15°C° 0 mm 2 m/S 718 mmHg 85%
    06:00 +15°C° 0 mm 2 m/S 718 mmHg 85%
    07:00 +16°C° 0.1 mm 3 m/S 719 mmHg 78%
    08:00 +18°C° 0.1 mm 3 m/S 719 mmHg 71%
    09:00 +19°C° 0.1 mm 4 m/S 719 mmHg 64%
    10:00 +19°C° 0.2 mm 5 m/S 719 mmHg 61%
    11:00 +20°C° 0.2 mm 6 m/S 719 mmHg 58%
    12:00 +21°C° 0.2 mm 6 m/S 719 mmHg 54%
    13:00 +21°C° 0.2 mm 7 m/S 719 mmHg 53%
    14:00 +21°C° 0.2 mm 7 m/S 719 mmHg 52%
    15:00 +21°C° 0.2 mm 8 m/S 719 mmHg 51%
    16:00 +21°C° 0 mm 7 m/S 719 mmHg 55%
    17:00 +20°C° 0 mm 7 m/S 719 mmHg 58%
    18:00 +19°C° 0 mm 6 m/S 719 mmHg 62%
    19:00 +17°C° 0 mm 5 m/S 720 mmHg 68%
    20:00 +18°C° 0 mm 3 m/S 720 mmHg 73%
    21:00 +17°C° 0 mm 2 m/S 721 mmHg 79%
    22:00 +16°C° 0 mm 2 m/S 720 mmHg 81%
    23:00 +16°C° 0 mm 2 m/S 720 mmHg 84%

    27 Mai, Montag

    Zeit Temperatur Niederschläge Wind Luftdruck Luftfeuchtigkeit
    00:00 +16°C° 0 mm 1 m/S 720 mmHg 87%
    01:00 +15°C° 0 mm 1 m/S 719 mmHg 88%
    02:00 +15°C° 0 mm 1 m/S 719 mmHg 90%
    03:00 +15°C° 0 mm 1 m/S 719 mmHg 92%
    04:00 +15°C° 0 mm 1 m/S 719 mmHg 90%
    05:00 +15°C° 0 mm 1 m/S 719 mmHg 88%
    06:00 +15°C° 0 mm 2 m/S 719 mmHg 87%
    07:00 +18°C° 0 mm 1 m/S 719 mmHg 77%
    08:00 +19°C° 0 mm 1 m/S 720 mmHg 68%
    09:00 +20°C° 0 mm 1 m/S 720 mmHg 59%
    10:00 +21°C° 0 mm 2 m/S 720 mmHg 53%
    11:00 +24°C° 0 mm 2 m/S 720 mmHg 46%
    12:00 +25°C° 0 mm 3 m/S 720 mmHg 40%
    13:00 +26°C° 0 mm 3 m/S 719 mmHg 39%
    14:00 +26°C° 0 mm 4 m/S 719 mmHg 37%
    15:00 +27°C° 0 mm 4 m/S 719 mmHg 36%
    16:00 +26°C° 0 mm 4 m/S 719 mmHg 38%
    17:00 +26°C° 0 mm 4 m/S 719 mmHg 41%
    18:00 +25°C° 0 mm 4 m/S 718 mmHg 43%
    19:00 +24°C° 0 mm 3 m/S 719 mmHg 45%
    20:00 +22°C° 0 mm 3 m/S 719 mmHg 47%
    21:00 +23°C° 0 mm 2 m/S 720 mmHg 50%
    22:00 +21°C° 0 mm 2 m/S 719 mmHg 51%
    23:00 +21°C° 0 mm 2 m/S 719 mmHg 52%
    Mehr zeigen